Location: Hilton Head Island
(32.2163°N, 80.7526°W)
Time: 07:05:58
(UTC-05:00)

Vanguard 1 Rocket - All Passes

Search period start: 16 February 2026 00:00
Search period end: 26 February 2026 00:00
Orbit: 652 x 4215 km, 34.3° (Epoch: 15 February)

Date Brightness Start Highest point End Pass type
(mag) Time Alt. Az. Time Alt. Az. Time Alt. Az.
16 Feb - 11:26:21 10° S 11:32:07 27° SE 11:41:27 10° E daylight
16 Feb - 13:48:16 10° WSW 13:57:18 81° SSE 14:15:52 10° ENE daylight
16 Feb - 16:13:21 10° W 16:27:00 84° N 16:51:56 10° E daylight
16 Feb - 18:40:12 10° WNW 18:59:26 76° SSW 19:25:50 10° SE visible
16 Feb - 21:10:11 10° WNW 21:31:21 41° SW 21:52:56 10° SSE visible
17 Feb - 10:19:29 10° SE 10:20:43 10° SE 10:22:02 10° ESE daylight
17 Feb - 12:36:52 10° SW 12:44:12 60° SSE 12:58:39 10° ENE daylight
17 Feb - 15:00:54 10° W 15:11:52 84° N 15:33:46 10° E daylight
17 Feb - 17:26:50 10° WNW 17:43:07 87° SSW 18:09:31 10° ESE daylight
17 Feb - 19:54:48 10° WNW 20:15:28 55° SW 20:39:57 10° SE visible
17 Feb - 22:29:40 10° W 22:45:57 22° SW 23:01:32 10° S visible
18 Feb - 11:26:14 10° SSW 11:32:03 35° SE 11:42:01 10° ENE daylight
18 Feb - 13:48:53 10° WSW 13:57:42 88° SSE 14:15:52 10° ENE daylight
18 Feb - 16:14:01 10° W 16:27:21 85° N 16:51:58 10° E daylight
18 Feb - 18:40:41 10° WNW 18:59:16 69° SSW 19:25:22 10° SE visible
18 Feb - 21:11:08 10° W 21:30:46 34° SW 21:51:26 10° SSE visible
19 Feb - 10:17:08 10° SSE 10:20:34 15° SE 10:25:00 10° E daylight
19 Feb - 12:37:20 10° WSW 12:44:28 70° SSE 12:58:44 10° ENE daylight
19 Feb - 15:01:37 10° W 15:12:20 82° N 15:33:50 10° E daylight
19 Feb - 17:27:23 10° WNW 17:43:12 81° SSW 18:09:17 10° ESE daylight
19 Feb - 19:55:25 10° WNW 20:15:03 48° SW 20:38:54 10° SSE visible
19 Feb - 22:32:59 10° W 22:45:29 16° SW 22:57:49 10° SSW visible
20 Feb - 11:26:22 10° SW 11:32:09 44° SE 11:42:25 10° ENE daylight
20 Feb - 13:49:35 10° W 13:58:10 86° N 14:15:55 10° E daylight
20 Feb - 16:14:39 10° WNW 16:27:39 89° NNE 16:51:57 10° ESE daylight
20 Feb - 18:41:12 10° WNW 18:59:05 61° SSW 19:24:39 10° SE visible
20 Feb - 21:12:32 10° W 21:30:17 28° SW 21:49:23 10° S visible
21 Feb - 10:16:23 10° S 10:20:31 21° SE 10:26:21 10° E daylight
21 Feb - 12:37:56 10° WSW 12:44:52 80° SSE 12:58:50 10° ENE daylight
21 Feb - 15:02:20 10° W 15:12:48 83° N 15:33:55 10° E daylight
21 Feb - 17:27:56 10° WNW 17:43:16 75° SSW 18:08:52 10° SE daylight
21 Feb - 19:56:15 10° W 20:14:41 40° SW 20:37:30 10° SSE visible
21 Feb - 22:40:21 10° WSW 22:45:15 11° SW 22:50:09 10° SW visible
22 Feb - 11:26:42 10° SW 11:32:23 55° SSE 11:42:43 10° ENE daylight
22 Feb - 13:50:19 10° W 13:58:42 82° N 14:16:01 10° E daylight
22 Feb - 16:15:17 10° WNW 16:27:55 86° SSW 16:51:48 10° ESE daylight
22 Feb - 18:41:50 10° WNW 18:58:55 54° SSW 19:23:39 10° SE visible
22 Feb - 21:14:38 10° W 21:29:56 22° SW 21:46:36 10° S visible
23 Feb - 10:16:10 10° SSW 10:20:36 28° SE 10:27:13 10° E daylight
23 Feb - 12:38:36 10° WSW 12:45:22 89° S 12:58:58 10° ENE daylight
23 Feb - 15:03:02 10° W 15:13:15 85° N 15:33:58 10° E daylight
23 Feb - 17:28:31 10° WNW 17:43:18 67° SSW 18:08:13 10° SE daylight
23 Feb - 19:57:22 10° W 20:14:25 33° SW 20:35:40 10° SSE visible
24 Feb - 09:07:59 10° SSE 09:09:09 11° SE 09:10:25 10° ESE daylight
24 Feb - 11:27:11 10° WSW 11:32:45 67° SSE 11:43:00 10° ENE daylight
24 Feb - 13:51:05 10° W 13:59:16 81° N 14:16:09 10° E daylight
24 Feb - 16:15:54 10° WNW 16:28:10 80° SSW 16:51:29 10° ESE daylight
24 Feb - 18:42:37 10° W 18:58:47 46° SW 19:22:20 10° SSE visible
24 Feb - 21:18:04 10° WSW 21:29:47 16° SW 21:42:29 10° SSW visible
25 Feb - 10:16:15 10° SSW 10:20:49 37° SE 10:27:52 10° E daylight
25 Feb - 12:39:19 10° W 12:45:57 84° N 12:59:08 10° E daylight
25 Feb - 15:03:43 10° WNW 15:13:41 89° NNE 15:33:56 10° ESE daylight
25 Feb - 17:29:11 10° WNW 17:43:22 59° SSW 18:07:19 10° SE daylight
25 Feb - 19:58:57 10° W 20:14:15 26° SW 20:33:16 10° S visible
